User: anonymous   Login
Location: Austin, TX
(30.3000°N, 97.7500°W)
Time: 20:35:49
(UTC-06:00)
Language:

Cosmos 2082 Rocket - Orbit

View from above orbital plane
View from above orbital plane
View from above satellite
View from above satellite

Ground track
Ground track

The orbit data is extracted from the following two-line orbital elements,

1 20625U 90046B   15029.66864257  .00000327  00000-0  19479-3 0  9237
2 20625 071.0000 174.0028 0015054 340.6313 097.3176 14.14556512274877
Epoch (UTC): 29 January 2015 16:02:50
Eccentricity: 0.0015054
inclination: 71.0000°
perigee height: 833 km
apogee height: 854 km
right ascension of ascending node: 174.0028°
argument of perigee: 340.6313°
revolutions per day: 14.14556512
mean anomaly at epoch: 97.3176°
orbit number at epoch: 27487

The dashed part of the orbit path shows where the satellite is in the earth's shadow,  

DLR